Weather History for KVGT - January, 2013

Change the Weather History Date:

Wednesday, January 23, 2013

  Actual Average Record
Temperature  
Mean Temperature 50 °F -  
Max Temperature 62 °F 59 °F 72 °F (1953)
Min Temperature 39 °F 34 °F 17 °F (1958)
Degree Days  
Heating Degree Days 14    
Moisture  
Dew Point 16 °F    
Average Humidity 26    
Maximum Humidity 37    
Minimum Humidity 15    
Precipitation  
Precipitation 0.00 in - - ()
Sea Level Pressure  
Sea Level Pressure 30.24 in    
Wind  
Wind Speed 4 mph (NW)    
Max Wind Speed 7 mph    
Max Gust Speed -    
Visibility 10 miles    
Events      
Averages and records for this station are not official NWS values.
T = Trace of Precipitation, MM = Missing Value Source: NWS Daily Summary

Daily Weather History Graph

Daily Weather History Graph

Search for Another Location

Airport or City:

Trip Planner

Search our weather history database for the weather conditions in past years. The results will help you decide how hot, cold, wet, or windy it might be!

Date:

Astronomy

Jan. 23, 2013 Rise Set
Actual Time 6:47 AM PST 4:58 PM PST
Civil Twilight 6:20 AM PST 5:25 PM PST
Nautical Twilight 5:48 AM PST 5:56 PM PST
Astronomical Twilight 5:18 AM PST 6:27 PM PST
Moon 2:13 PM PST (1/23) 4:01 AM PST (1/23)
Length of Visible Light 11h 05m
Length of Day
10h 10m
Waxing Gibbous, 90% of the Moon is Illuminated
Jan 23
Waxing Gibbous
Jan 26
Full
Feb 3
Last Quarter
Feb 9
New
Feb 17
First Quarter

Hourly Weather History & Observations

Time (PST) Temp. Windchill Dew Point Humidity Pressure Visibility Wind Dir Wind Speed Gust Speed Precip Events Conditions
12:53 AM 39.9 °F 36.7 °F 12.9 °F 33% 30.27 in 10.0 mi NW 4.6 mph - N/A   Clear
1:53 AM 42.1 °F 38.4 °F 16.0 °F 35% 30.26 in 10.0 mi WNW 5.8 mph - N/A   Clear
2:53 AM 41.0 °F 39.0 °F 15.1 °F 35% 30.25 in 10.0 mi NNW 3.5 mph - N/A   Clear
3:53 AM 42.1 °F 38.4 °F 14.0 °F 32% 30.25 in 10.0 mi North 5.8 mph - N/A   Clear
4:53 AM 42.1 °F 39.2 °F 14.0 °F 32% 30.25 in 10.0 mi WNW 4.6 mph - N/A   Clear
5:53 AM 41.0 °F 39.0 °F 15.1 °F 35% 30.27 in 10.0 mi ENE 3.5 mph - N/A   Clear
6:53 AM 41.0 °F 39.0 °F 15.1 °F 35% 30.29 in 10.0 mi NNW 3.5 mph - N/A   Clear
7:53 AM 42.1 °F 39.2 °F 17.1 °F 37% 30.30 in 10.0 mi WNW 4.6 mph - N/A   Clear
8:53 AM 44.1 °F 42.5 °F 18.0 °F 35% 30.31 in 10.0 mi North 3.5 mph - N/A   Clear
9:53 AM 51.1 °F - 15.1 °F 24% 30.32 in 10.0 mi Calm Calm - N/A   Clear
10:53 AM 53.1 °F - 15.1 °F 22% 30.30 in 10.0 mi Calm Calm - N/A   Clear
11:53 AM 57.0 °F - 12.9 °F 18% 30.27 in 10.0 mi South 3.5 mph - N/A   Clear
12:53 PM 57.9 °F - 12.0 °F 16% 30.24 in 10.0 mi Calm Calm - N/A   Clear
1:53 PM 60.1 °F - 14.0 °F 16% 30.21 in 10.0 mi SSE 5.8 mph - N/A   Clear
2:53 PM 62.1 °F - 12.9 °F 15% 30.20 in 10.0 mi SSE 6.9 mph - N/A   Clear
3:53 PM 62.1 °F - 12.9 °F 15% 30.19 in 10.0 mi SSE 6.9 mph - N/A   Clear
4:53 PM 61.0 °F - 14.0 °F 16% 30.19 in 10.0 mi South 3.5 mph - N/A   Clear
5:53 PM 59.0 °F - 15.1 °F 18% 30.21 in 10.0 mi Calm Calm - N/A   Clear
6:53 PM 57.9 °F - 17.1 °F 20% 30.20 in 10.0 mi Calm Calm - N/A   Clear
7:53 PM 55.9 °F - 18.0 °F 23% 30.20 in 10.0 mi Calm Calm - N/A   Clear
8:53 PM 53.1 °F - 19.0 °F 26% 30.21 in 7.0 mi Calm Calm - N/A   Clear
9:53 PM 51.1 °F - 19.9 °F 29% 30.21 in 10.0 mi Calm Calm - N/A   Clear
10:53 PM 51.1 °F - 21.9 °F 32% 30.20 in 10.0 mi NW 3.5 mph - N/A   Clear
11:53 PM 51.1 °F - 21.9 °F 32% 30.19 in 10.0 mi NW 3.5 mph - N/A   Clear